Regional Weather Roundup
Issued by NWS

Home | Current Version | Previous Version | Graphics & Text | Print | Product List | Glossary On
Versions: 1 2 3 4 5 6 7 8 9 10 11 12 13 14 15 16 17 18 19 20 21 22 23 24 25 26 27
000
ASUS45 KBOU 230907
RWRCO

WEATHER ROUNDUP FOR COLORADO
NATIONAL WEATHER SERVICE DENVER/BOULDER CO
300 AM MDT WED AUG 23 2017

NOTE: "FAIR" INDICATES FEW OR NO CLOUDS BELOW 12000 FEET WITH NO
SIGNIFICANT WEATHER AND/OR OBSTRUCTIONS TO VISIBILITY.

COZ001>005-013-030-031-231000-
...NORTHWEST COLORADO...

CITY           SKY/WX    TMP DP  RH WIND       PRES   REMARKS
CRAIG          FAIR      51  42  71 CALM      30.32S
HAYDEN         FAIR      59  40  49 S5        30.35S
MEEKER         FAIR      57  44  62 E6        30.33F
RABBIT EARS PA CLOUDY    52  36  54 CALM      30.61F
STEAMBOAT SPGS FAIR      54  41  62 CALM      30.36S
WALDEN         FAIR      46  36  66 SE7       30.44S
$$

COZ006>008-011-231000-
...WEST CENTRAL VALLEYS...

CITY           SKY/WX    TMP DP  RH WIND       PRES   REMARKS
GRAND JUNCTION FAIR      65  52  62 SE12      30.21F
MONTROSE       FAIR      57  46  66 SE7       30.31F
EAGLE          FAIR      55  40  56 E5        30.38F
RIFLE          FAIR      58  44  60 CALM      30.29S
DELTA          FAIR      61  47  60 NE6       30.28R
NUCLA          FAIR      57  45  62 SE7       30.33S
$$

COZ017>023-064>068-231000-
...SOUTHWEST COLORADO...

CITY           SKY/WX    TMP DP  RH WIND       PRES   REMARKS
DURANGO        MOCLDY    57  46  66 CALM      30.37F
CORTEZ         FAIR      52  48  86 CALM      30.30S
PAGOSA SPRINGS FAIR      49  47  92 CALM      30.45F
TELLURIDE      FAIR      49  43  80 SE6       30.53F
WOLF CREEK PAS FAIR      43  36  75 SW9       30.75S
$$

COZ009-010-012-014-032>034-037-058>063-231000-
...CENTRAL COLORADO...

CITY           SKY/WX    TMP DP  RH WIND       PRES   REMARKS
ASPEN          MOCLDY    54  41  61 S6        30.42F
BUENA VISTA    FAIR      46  42  85 CALM      30.46F
COPPER MTN     FAIR      52  32  46 CALM      30.70F
BERTHOUD PASS  CLOUDY    41  36  81 N5        30.74S
COTTONWOOD PAS FAIR      54  37  54 SW6       30.56F
GUNNISON       FAIR      44  41  89 VRB3      30.47F
KREMMLING      FAIR      55  43  62 CALM      30.42S
LEADVILLE      FAIR      39  35  86 NE3       30.56F
SALIDA         FAIR      56  45  66 NW5       30.50S
SUNLIGHT       FAIR      48  34  57 SW3       30.65F
WILKERSON PASS CLOUDY    46  36  66 W6        30.67S
$$

COZ069>075-231000-
...SAN LUIS VALLEY/SANGRE DE CRISTO MOUNTAINS...

CITY           SKY/WX    TMP DP  RH WIND       PRES   REMARKS
ALAMOSA        FAIR      48  47  96 CALM      30.43F
DEL NORTE      FAIR      49  45  84 W12       30.48S
LA VETA PASS   NOT AVBL
SAGUACHE         N/A    N/A N/A N/A MISG        N/A
$$

COZ035-036-038>040-231000-
...NORTHERN COLORADO FRONT RANGE...

CITY           SKY/WX    TMP DP  RH WIND       PRES   REMARKS
DENVER INTL AP FAIR      64  50  60 S12       30.19S
DMNS CITY PARK   N/A     65  44  46 E9        30.19F
AURORA         MOCLDY    64  50  59 S15       30.21F
FRONT RANGE AP FAIR      64  50  59 S16       30.20F
ERIE MUNI ARPT FAIR      56  47  72 CALM      30.23S
BOULDER MUN AP FAIR      61  46  59 CALM      30.18S
CENTENNIAL     FAIR      63  49  60 SE8       30.23F
BROOMFIELD     FAIR      64  52  63 CALM      30.22S
FORT COLLINS   FAIR      60  57  89 NE5       30.17F
LONGMONT       FAIR      58  48  70 CALM      30.19F HAZE
$$

COZ041-046-047-076>085-087-088-231000-
...PIKES PEAK/PALMER DIVIDE AND SOUTHERN FOOTHILLS...

CITY           SKY/WX    TMP DP  RH WIND       PRES   REMARKS
COLO. SPRINGS  FAIR      58  49  72 NE3       30.32F
A. F. ACADEMY  CLOUDY    55  51  85 CALM      30.33S
SCHRIEVER AFB  FAIR      56  49  74 SE3       30.32S
CHEYENNE MTN   FAIR      57  50  79 N9        30.30S
ELLICOTT       FAIR     N/A N/A N/A S6        30.30S
FALCON         FAIR      54  47  78 CALM      30.36S
FORT CARSON    FAIR      55  50  86 N8        30.29S
LIMON          FAIR      52  52 100 CALM      30.27S
MONUMENT HILL  FAIR      55  46  71 S16       30.35S
CANON CITY     CLEAR     66  52  59 W14       30.26S
WALSENBURG     FAIR      61  50  67 SW10      30.29F
TRINIDAD       FAIR      56  49  77 W8        30.29F
$$

COZ042>045-048>051-090-091-231000-
...NORTHEAST COLORADO...

CITY           SKY/WX    TMP DP  RH WIND       PRES   REMARKS
GREELEY ARPT   FAIR      56  54  93 CALM      30.16F
AKRON          FAIR      60  52  74 S12       30.19F
BURLINGTON     FAIR      58  52  80 S14       30.23S
WRAY           FAIR      61  46  59 SE10      30.20F
YUMA           FAIR      55  41  58 S8        30.19F
STERLING       FAIR      63  55  77 S9        30.15S
HOLYOKE        FAIR      59  52  77 S8        30.20S
FORT MORGAN    FAIR      59  54  81 S6        30.17S
$$

COZ086-089-092>099-231000-
...SOUTHEAST COLORADO...

CITY           SKY/WX    TMP DP  RH WIND       PRES   REMARKS
PUEBLO         FAIR      56  49  77 NE7       30.23S
LA JUNTA       FAIR      63  58  83 SE6       30.21F
LAMAR          FAIR      59  55  87 NE3       30.20S
SPRINGFIELD      N/A     60  60 100 S7        30.25F
$$




USA.gov is the U.S. government's official web portal to all federal, state and local government web resources and services.